TimeEST,TemperatureF,Dew PointF,Humidity,Sea Level PressureIn,VisibilityMPH,Wind Direction,Wind SpeedMPH,Gust SpeedMPH,PrecipitationIn,Events,Conditions,WindDirDegrees,DateUTC
12:08 AM,44.6,35.6,71,30.10,10.0,NW,13.8,-,N/A,,Overcast,310,2013-01-18 05:08:00
12:56 AM,46.0,37.0,71,30.13,10.0,NNW,15.0,-,N/A,,Overcast,330,2013-01-18 05:56:00
1:56 AM,46.9,39.0,74,30.17,10.0,North,13.8,21.9,N/A,,Scattered Clouds,360,2013-01-18 06:56:00
2:56 AM,46.0,39.0,76,30.20,10.0,North,13.8,25.3,N/A,,Partly Cloudy,10,2013-01-18 07:56:00
3:56 AM,45.0,37.0,74,30.25,10.0,NNE,18.4,28.8,N/A,,Clear,20,2013-01-18 08:56:00
4:56 AM,43.0,36.0,76,30.28,10.0,North,10.4,-,N/A,,Clear,10,2013-01-18 09:56:00
5:56 AM,43.0,35.1,74,30.31,10.0,NNE,13.8,20.7,N/A,,Clear,20,2013-01-18 10:56:00
6:56 AM,41.0,35.1,79,30.35,10.0,North,8.1,-,N/A,,Clear,10,2013-01-18 11:56:00
7:56 AM,41.0,35.1,79,30.38,10.0,NNE,11.5,-,N/A,,Clear,20,2013-01-18 12:56:00
8:56 AM,44.1,35.1,71,30.41,10.0,NNE,16.1,-,N/A,,Clear,30,2013-01-18 13:56:00
9:56 AM,46.9,33.1,59,30.45,10.0,NNE,15.0,20.7,N/A,,Clear,30,2013-01-18 14:56:00
10:56 AM,51.1,30.9,46,30.47,10.0,NNE,15.0,-,N/A,,Clear,30,2013-01-18 15:56:00
11:56 AM,53.1,25.0,34,30.45,10.0,NNE,16.1,23.0,N/A,,Clear,20,2013-01-18 16:56:00
12:56 PM,55.9,21.9,27,30.43,10.0,NE,13.8,-,N/A,,Partly Cloudy,40,2013-01-18 17:56:00
1:56 PM,57.0,18.0,22,30.42,10.0,NNE,16.1,24.2,N/A,,Clear,30,2013-01-18 18:56:00
2:56 PM,57.9,18.0,21,30.42,10.0,NE,12.7,-,N/A,,Clear,40,2013-01-18 19:56:00
3:56 PM,57.0,18.0,22,30.43,10.0,NNE,12.7,-,N/A,,Clear,30,2013-01-18 20:56:00
4:56 PM,54.0,19.9,26,30.44,10.0,NE,10.4,-,N/A,,Clear,40,2013-01-18 21:56:00
5:56 PM,48.0,21.9,36,30.45,10.0,NNE,9.2,-,N/A,,Clear,30,2013-01-18 22:56:00
6:56 PM,45.0,26.1,48,30.47,10.0,NNE,4.6,-,N/A,,Clear,30,2013-01-18 23:56:00
7:56 PM,45.0,26.1,48,30.49,10.0,ENE,4.6,-,N/A,,Clear,60,2013-01-19 00:56:00
8:56 PM,43.0,27.0,53,30.50,10.0,NE,4.6,-,N/A,,Clear,40,2013-01-19 01:56:00
9:56 PM,41.0,27.0,57,30.49,10.0,NE,4.6,-,N/A,,Clear,50,2013-01-19 02:56:00
10:56 PM,39.9,27.0,60,30.49,10.0,NNE,4.6,-,N/A,,Clear,20,2013-01-19 03:56:00
11:56 PM,41.0,28.9,62,30.47,10.0,NNE,9.2,-,N/A,,Mostly Cloudy,20,2013-01-19 04:56:00